Torna al catalogo

DUMMY MASS 1

AttivoScienzaPO
NORAD 24925·PAYLOAD·🇨🇳 China

Lanciato Sep 1, 1997 da Taiyuan Satellite Launch Center

Loading…

Prossimi Passaggi (prossime 24 ore)

TLE

AggiornatoSource: Space-Track

Epoca: Sep 14, 2026, 01:11 UTC

1 24925U 97048A   26257.04940491  .00000244  00000-0  23871-4 0  9998
2 24925  86.3298 285.2952 0006018 358.1234   1.9967 14.87390096572580

Traccia DUMMY MASS 1 in tempo reale con AllMySat

Download on the App Store